Back to catalog

RASSVET-3 10

AliveSciencePO
NORAD 68369·PAYLOAD·🇷🇺 Russia

Launched Mar 23, 2026 from Plesetsk Cosmodrome

Loading…

Next Passes (next 24 hours)

TLE

FreshSource: Space-Track

Epoch: Sep 14, 2026, 14:14 UTC

1 68369U 26061K   26257.59333718  .00002913  00000-0  14017-3 0  9999
2 68369  82.2824 275.2617 0002957 132.2030 227.9455 15.18418813 27490

Track RASSVET-3 10 in real time with AllMySat

Download on the App Store